DL1GHN-6 Weather Reports


time (UTC)temp
C
wind
direction
speed
KPH
gust
KPH
rain 1hr
cm
rain 24hr
cm
rain mn
cm
humidity
%
barometer
mb
20260507041209 10 175 3.2 6.4 0.08 1.42 0.48 92 1012.9
20260507040708 10 205 3.2 8.0 0.08 1.42 0.48 92 1012.9
20260507040208 10 185 3.2 8.0 0.08 1.40 0.46 92 1012.8
20260507035709 10 167 4.8 6.4 0.08 1.40 0.46 91 1012.8
20260507035208 10 182 3.2 8.0 0.05 1.37 0.43 92 1012.8
20260507034708 10 189 1.6 4.8 0.08 1.37 0.43 91 1012.8
20260507034209 10 180 1.6 6.4 0.08 1.37 0.43 91 1012.8
20260507033709 10 146 1.6 1.6 0.08 1.37 0.43 91 1012.7
20260507033208 10 217 1.6 4.8 0.05 1.37 0.43 91 1012.7
20260507032708 10 166 1.6 6.4 0.05 1.37 0.43 91 1012.6
20260507032208 10 169 3.2 6.4 0.08 1.37 0.43 91 1012.6
20260507031445 10 170 3.2 8.0 0.05 1.35 0.41 91 1012.5
20260507030944 10 219 6.4 8.0 0.08 1.35 0.41 91 1012.4
20260507030444 10 165 1.6 3.2 0.05 1.32 0.38 91 1012.4
20260507025944 10 154 3.2 6.4 0.05 1.32 0.38 91 1012.4
20260507025444 10 194 0.0 4.8 0.05 1.32 0.38 91 1012.4
20260507024944 10 180 3.2 6.4 0.05 1.30 0.36 91 1012.3
20260507024444 10 166 3.2 4.8 0.05 1.30 0.36 91 1012.3
20260507023944 10 148 1.6 3.2 0.05 1.30 0.36 91 1012.3
20260507023445 10 128 1.6 4.8 0.08 1.30 0.36 91 1012.2
20260507022945 10 188 1.6 4.8 0.08 1.30 0.36 91 1012.3
20260507022444 10 175 1.6 4.8 0.05 1.27 0.33 91 1012.2
20260507021945 10 193 1.6 4.8 0.05 1.27 0.33 91 1012.2
20260507021444 10 162 1.6 3.2 0.08 1.27 0.33 91 1012.1
20260507020945 10 140 3.2 4.8 0.08 1.27 0.33 91 1012.1
20260507020445 10 136 3.2 3.2 0.08 1.27 0.33 91 1012.0
20260507015943 10 189 0.0 1.6 0.08 1.27 0.33 91 1012.0
20260507015445 10 189 0.0 1.6 0.10 1.27 0.33 91 1012.0
20260507014945 10 189 0.0 6.4 0.10 1.27 0.33 91 1011.9
20260507014443 10 144 1.6 4.8 0.10 1.24 0.30 91 1011.8
20260507013944 10 171 1.6 3.2 0.10 1.24 0.30 91 1011.8
20260507013444 10 193 1.6 9.7 0.08 1.22 0.28 91 1011.8
20260507012945 10 238 3.2 8.0 0.08 1.22 0.28 91 1011.8
20260507012445 10 187 4.8 9.7 0.10 1.22 0.28 91 1011.8
20260507011945 10 213 3.2 8.0 0.10 1.22 0.28 91 1011.8
20260507011445 10 231 4.8 8.0 0.10 1.19 0.25 91 1011.8
20260507010944 10 236 4.8 9.7 0.08 1.17 0.23 91 1011.7
20260507010444 10 239 6.4 11.3 0.08 1.17 0.23 90 1011.7
20260507005945 10 263 4.8 6.4 0.10 1.17 0.23 90 1011.5
20260507005444 10 211 8.0 16.1 0.08 1.17 0.23 90 1011.6
20260507004944 10 257 8.0 17.7 0.10 1.17 0.23 90 1011.4
20260507004443 10 203 3.2 8.0 0.08 1.14 0.20 90 1011.3
20260507003945 10 281 8.0 16.1 0.08 1.14 0.20 90 1011.2
20260507003444 10 185 9.7 19.3 0.08 1.14 0.20 90 1011.2
20260507002944 10 203 6.4 17.7 0.08 1.14 0.20 90 1011.2
20260507002444 10 157 9.7 24.1 0.08 1.12 0.18 90 1011.2
20260507001943 10 167 12.9 24.1 0.08 1.12 0.18 90 1011.2
20260507001443 10 231 8.0 16.1 0.05 1.09 0.15 90 1011.1
20260507000943 10 198 11.3 20.9 0.08 1.09 0.15 90 1011.1
20260507000444 10 175 11.3 17.7 0.08 1.09 0.15 90 1011.0
20260506235945 10 216 11.3 19.3 0.05 1.09 0.15 90 1011.1
20260506235444 10 170 11.3 22.5 0.08 1.09 0.15 90 1011.1
20260506234944 10 130 14.5 25.7 0.05 1.07 0.13 90 1011.1
20260506234445 10 200 6.4 20.9 0.05 1.07 0.13 90 1011.1
20260506233943 10 173 11.3 24.1 0.08 1.07 0.13 90 1011.1
20260506233445 10 190 8.0 12.9 0.08 1.07 0.13 90 1011.1
20260506232945 10 140 11.3 17.7 0.08 1.07 0.13 90 1011.1
20260506232445 10 177 8.0 19.3 0.05 1.04 0.10 90 1011.1
20260506231945 10 163 9.7 16.1 0.08 1.04 0.10 90 1011.1
20260506231445 10 163 4.8 12.9 0.08 1.04 0.10 90 1011.0
20260506230945 10 188 6.4 16.1 0.05 1.02 0.08 90 1011.0
20260506230444 10 175 12.9 19.3 0.05 1.02 0.08 90 1011.0
20260506225944 10 148 6.4 17.7 0.08 1.02 0.08 90 1011.0
20260506225445 10 139 4.8 16.1 0.08 0.99 0.05 90 1011.0
20260506224945 10 211 8.0 16.1 0.08 0.99 0.05 90 1010.9
20260506224444 10 198 9.7 24.1 0.10 0.99 0.05 90 1011.0
20260506223945 10 129 4.8 12.9 0.08 0.99 0.05 90 1010.9
20260506223445 10 173 8.0 17.7 0.10 0.99 0.05 90 1010.9
20260506222945 10 189 6.4 14.5 0.10 0.99 0.05 90 1010.9
20260506222445 10 186 9.7 14.5 0.13 0.99 0.05 90 1010.9
20260506221944 10 146 8.0 12.9 0.13 0.97 0.03 90 1010.8
20260506221443 10 150 11.3 17.7 0.13 0.97 0.03 90 1010.8
20260506220945 10 175 11.3 20.9 0.13 0.97 0.03 90 1010.7
20260506220443 10 136 6.4 19.3 0.15 0.97 0.03 90 1010.8
20260506215944 10 132 4.8 14.5 0.13 0.94 0.94 90 1010.8
20260506215445 10 169 9.7 16.1 0.13 0.91 0.91 90 1010.7
20260506214944 10 182 6.4 19.3 0.13 0.91 0.91 90 1010.7
20260506214443 10 168 9.7 17.7 0.13 0.89 0.89 90 1010.8
20260506213943 11 180 8.0 14.5 0.15 0.89 0.89 90 1010.7
20260506213443 11 192 6.4 16.1 0.13 0.89 0.89 90 1010.7
20260506212945 11 161 9.7 17.7 0.15 0.89 0.89 90 1010.7
20260506212443 11 153 6.4 14.5 0.13 0.86 0.86 90 1010.6
20260506211943 11 171 6.4 12.9 0.13 0.84 0.84 90 1010.6
20260506211445 11 220 6.4 14.5 0.15 0.84 0.84 90 1010.6
20260506210944 11 162 4.8 9.7 0.15 0.84 0.84 90 1010.7
20260506210445 11 188 6.4 16.1 0.15 0.81 0.81 90 1010.6
20260506205944 11 197 8.0 12.9 0.15 0.81 0.81 90 1010.6
20260506205445 11 171 4.8 16.1 0.15 0.79 0.79 90 1010.6
20260506204945 11 173 6.4 16.1 0.15 0.79 0.79 90 1010.6
20260506204445 11 180 6.4 14.5 0.15 0.79 0.79 90 1010.5
20260506203945 11 196 9.7 17.7 0.15 0.76 0.76 90 1010.6
20260506203444 11 190 6.4 16.1 0.18 0.76 0.76 90 1010.5
20260506202944 11 169 4.8 11.3 0.15 0.74 0.74 90 1010.5
20260506202445 11 192 9.7 16.1 0.18 0.74 0.74 90 1010.5
20260506201945 11 148 6.4 14.5 0.18 0.71 0.71 90 1010.5
20260506201443 11 132 9.7 19.3 0.18 0.71 0.71 90 1010.5
20260506200944 11 182 8.0 12.9 0.18 0.69 0.69 90 1010.4
20260506200443 11 207 8.0 17.7 0.20 0.69 0.69 90 1010.4
20260506195943 11 161 6.4 14.5 0.20 0.66 0.66 90 1010.4
20260506195443 11 194 9.7 17.7 0.20 0.64 0.64 90 1010.3
20260506194945 11 209 9.7 17.7 0.23 0.64 0.64 90 1010.3
20260506194444 11 184 9.7 17.7 0.23 0.61 0.61 90 1010.2
20260506193943 11 170 8.0 17.7 0.23 0.61 0.61 90 1010.1
20260506193443 11 169 6.4 14.5 0.23 0.58 0.58 90 1010.1
20260506192944 11 151 8.0 20.9 0.23 0.58 0.58 90 1010.0
20260506192444 11 107 11.3 16.1 0.23 0.56 0.56 90 1010.0
20260506191944 11 234 11.3 20.9 0.23 0.53 0.53 89 1009.9
20260506191444 11 162 6.4 12.9 0.23 0.51 0.51 89 1009.9
20260506190944 11 192 3.2 16.1 0.23 0.51 0.51 89 1009.8
20260506190445 11 214 8.0 12.9 0.20 0.48 0.48 89 1009.7
20260506185945 11 234 3.2 9.7 0.18 0.46 0.46 89 1009.7
20260506185444 11 98 4.8 17.7 0.18 0.43 0.43 89 1009.5
20260506184944 11 139 9.7 19.3 0.15 0.43 0.43 89 1009.4
20260506184445 11 200 12.9 20.9 0.15 0.41 0.41 89 1009.3
20260506183945 11 176 9.7 19.3 0.15 0.38 0.38 89 1009.2
20260506183445 11 176 8.0 12.9 0.13 0.36 0.36 89 1009.1
20260506182945 11 180 12.9 20.9 0.13 0.36 0.36 89 1009.0
20260506182444 11 224 8.0 20.9 0.10 0.33 0.33 89 1008.9
20260506181945 11 178 8.0 20.9 0.10 0.33 0.33 88 1008.9
20260506181444 11 169 6.4 17.7 0.10 0.30 0.30 88 1008.9
20260506180944 11 167 11.3 25.7 0.08 0.28 0.28 88 1008.8
20260506180444 11 217 9.7 20.9 0.08 0.28 0.28 88 1008.7
20260506175943 11 167 8.0 22.5 0.10 0.28 0.28 88 1008.6
20260506175443 11 128 9.7 16.1 0.08 0.25 0.25 88 1008.6
20260506174943 11 146 9.7 20.9 0.10 0.25 0.25 88 1008.6
20260506174443 11 180 8.0 19.3 0.08 0.23 0.23 88 1008.5
20260506173944 11 141 8.0 16.1 0.08 0.23 0.23 87 1008.4
20260506173443 11 178 11.3 20.9 0.08 0.23 0.23 87 1008.4
20260506172945 11 186 4.8 16.1 0.10 0.23 0.23 88 1008.4
20260506172444 11 190 4.8 16.1 0.08 0.23 0.23 87 1008.3
20260506171945 11 170 9.7 16.1 0.08 0.23 0.23 87 1008.3
20260506171444 12 113 9.7 19.3 0.05 0.20 0.20 87 1008.2
20260506170945 12 186 11.3 14.5 0.05 0.20 0.20 87 1008.2
20260506170445 12 187 11.3 22.5 0.05 0.20 0.20 86 1008.3
20260506165945 12 167 8.0 14.5 0.05 0.18 0.18 87 1008.3
20260506165445 12 178 8.0 12.9 0.05 0.18 0.18 86 1008.2
20260506164944 12 174 8.0 16.1 0.03 0.15 0.15 86 1008.3
20260506164444 12 197 8.0 19.3 0.03 0.15 0.15 86 1008.2
20260506163944 12 166 8.0 14.5 0.03 0.15 0.15 86 1008.3
20260506163443 12 190 6.4 16.1 0.03 0.15 0.15 86 1008.2
20260506162944 12 166 9.7 17.7 0.00 0.15 0.15 86 1008.2
20260506162444 12 146 8.0 17.7 0.00 0.15 0.15 86 1008.2
20260506161943 12 180 9.7 16.1 0.00 0.15 0.15 86 1008.1
20260506161443 12 176 6.4 17.7 0.03 0.15 0.15 86 1008.2
20260506160944 12 167 3.2 16.1 0.03 0.15 0.15 86 1008.2
20260506160443 12 150 11.3 17.7 0.03 0.15 0.15 86 1008.2
20260506155944 12 144 8.0 17.7 0.03 0.15 0.15 86 1008.2
20260506155443 12 194 8.0 14.5 0.03 0.15 0.15 86 1008.2
20260506154945 12 193 8.0 14.5 0.03 0.15 0.15 86 1008.1
20260506154445 12 198 9.7 14.5 0.05 0.15 0.15 86 1008.1
20260506153945 12 207 8.0 20.9 0.05 0.15 0.15 86 1008.1
20260506153444 12 196 9.7 16.1 0.05 0.15 0.15 86 1008.1
20260506152944 12 68 8.0 17.7 0.05 0.15 0.15 86 1008.1
20260506152445 12 185 14.5 24.1 0.05 0.15 0.15 86 1008.1
20260506151945 12 115 6.4 20.9 0.05 0.15 0.15 87 1008.0
20260506151444 12 211 9.7 16.1 0.05 0.15 0.13 87 1008.0
20260506150945 12 210 8.0 16.1 0.05 0.15 0.13 87 1008.0
20260506150443 12 205 8.0 16.1 0.05 0.15 0.13 87 1008.0
20260506145943 12 208 6.4 14.5 0.05 0.69 0.13 87 1008.0
20260506145444 12 211 8.0 14.5 0.05 0.69 0.13 86 1007.9
20260506144943 12 189 8.0 17.7 0.05 0.69 0.13 86 1007.9
20260506144444 13 212 8.0 14.5 0.03 0.66 0.10 85 1007.9
20260506143943 13 177 9.7 19.3 0.03 0.66 0.10 84 1007.9
20260506143443 13 170 6.4 16.1 0.03 0.66 0.10 83 1007.9
20260506142945 13 191 6.4 17.7 0.03 0.66 0.10 82 1007.8
20260506142443 13 176 6.4 11.3 0.03 0.66 0.10 82 1007.7
20260506141944 13 173 6.4 16.1 0.03 0.66 0.10 81 1007.6
20260506141444 13 227 6.4 19.3 0.00 0.64 0.08 80 1007.6
20260506140945 14 229 9.7 19.3 0.03 0.64 0.08 80 1007.4
20260506140445 14 217 9.7 19.3 0.05 0.64 0.08 79 1007.2
20260506135944 14 205 9.7 25.7 0.05 0.64 0.08 79 1007.1
20260506135444 14 142 9.7 19.3 0.05 0.64 0.08 79 1007.0
20260506134944 14 165 8.0 16.1 0.08 0.64 0.08 82 1007.0
20260506134443 14 183 3.2 11.3 0.08 0.64 0.08 84 1007.0
20260506133944 14 208 6.4 11.3 0.08 0.64 0.08 84 1007.0
20260506133444 14 190 6.4 11.3 0.08 0.64 0.08 84 1007.0
20260506132944 14 227 4.8 19.3 0.08 0.64 0.08 83 1007.0
20260506132445 14 194 8.0 12.9 0.08 0.64 0.08 83 1006.9
20260506131945 14 194 8.0 17.7 0.08 0.64 0.08 83 1006.8
20260506131443 14 196 6.4 11.3 0.08 0.64 0.08 84 1006.7
20260506130943 14 143 6.4 14.5 0.05 0.61 0.05 83 1006.7
20260506130444 15 188 6.4 16.1 0.05 0.61 0.05 82 1006.7
20260506125944 15 165 8.0 20.9 0.03 0.58 0.03 80 1006.7
20260506125444 15 148 8.0 19.3 0.03 0.58 0.03 79 1006.6
20260506124945 15 169 9.7 20.9 0.00 0.56 0.00 79 1006.6
20260506124445 15 229 8.0 11.3 0.00 0.56 0.00 79 1006.5
20260506123944 16 184 11.3 16.1 0.00 0.56 0.00 78 1006.5
20260506123444 16 256 9.7 16.1 0.00 0.56 0.00 77 1006.5
20260506122945 16 221 6.4 16.1 0.00 0.56 0.00 79 1006.5
20260506122445 16 235 8.0 11.3 0.00 0.56 0.00 81 1006.5
20260506121945 16 242 9.7 14.5 0.00 0.56 0.00 80 1006.4
20260506121444 16 198 8.0 20.9 0.00 0.56 0.00 78 1006.4
20260506120944 16 235 11.3 20.9 0.00 0.56 0.00 79 1006.4
20260506120443 16 224 6.4 16.1 0.00 0.56 0.00 80 1006.4
20260506115944 16 170 9.7 17.7 0.00 0.56 0.00 76 1006.4
20260506115444 16 125 9.7 17.7 0.00 0.56 0.00 75 1006.3
20260506114944 16 231 8.0 16.1 0.00 0.56 0.00 74 1006.3
20260506114444 17 281 9.7 17.7 0.00 0.56 0.00 73 1006.3
20260506113737 17 284 4.8 14.5 0.00 0.56 0.00 72 1006.2
20260506113237 17 185 9.7 16.1 0.00 0.56 0.00 71 1006.2
20260506112736 17 238 6.4 14.5 0.00 0.56 0.00 71 1006.3
20260506112237 17 196 8.0 14.5 0.00 0.56 0.00 70 1006.2
20260506111737 17 172 4.8 9.7 0.00 0.56 0.00 71 1006.3
20260506111237 17 163 4.8 11.3 0.00 0.56 0.00 70 1006.3
20260506110737 17 202 4.8 9.7 0.00 0.56 0.00 72 1006.3
20260506110237 17 243 6.4 9.7 0.00 0.56 0.00 70 1006.3
20260506105737 17 215 3.2 6.4 0.00 0.56 0.00 70 1006.3
20260506105237 17 232 1.6 8.0 0.00 0.56 0.00 70 1006.4
20260506104738 17 207 1.6 9.7 0.00 0.56 0.00 70 1006.3
20260506104237 17 281 4.8 9.7 0.00 0.56 0.00 71 1006.4
20260506103738 17 263 3.2 12.9 0.00 0.56 0.00 70 1006.4
20260506103238 17 286 4.8 11.3 0.00 0.56 0.00 70 1006.4
20260506102737 17 285 6.4 9.7 0.00 0.56 0.00 71 1006.4
20260506102237 17 267 4.8 9.7 0.00 0.56 0.00 69 1006.3
20260506101738 17 285 8.0 12.9 0.00 0.56 0.00 69 1006.4
20260506101237 17 257 4.8 11.3 0.00 0.56 0.00 68 1006.4
20260506100736 17 235 3.2 8.0 0.00 0.56 0.00 70 1006.4
20260506100236 17 219 3.2 9.7 0.00 0.56 0.00 69 1006.5
20260506095737 17 231 6.4 12.9 0.00 0.56 0.00 70 1006.5
20260506095236 16 232 1.6 11.3 0.00 0.56 0.00 73 1006.5
20260506094736 17 190 3.2 8.0 0.00 0.56 0.00 72 1006.4
20260506094238 16 171 3.2 8.0 0.00 0.56 0.00 71 1006.5
20260506093737 17 217 4.8 9.7 0.00 0.56 0.00 71 1006.5
20260506093238 17 241 4.8 9.7 0.00 0.56 0.00 71 1006.5
20260506092737 17 226 6.4 11.3 0.00 0.56 0.00 70 1006.5
20260506092243 17 225 3.2 11.3 0.00 0.56 0.00 71 1006.4
20260506091743 17 156 3.2 9.7 0.00 0.56 0.00 71 1006.4
20260506091241 17 219 8.0 9.7 0.00 0.56 0.00 71 1006.4
20260506090742 17 219 4.8 9.7 0.00 0.56 0.00 70 1006.3
20260506090241 17 236 6.4 12.9 0.00 0.56 0.00 71 1006.4
20260506085741 16 159 4.8 11.3 0.00 0.56 0.00 71 1006.3
20260506085241 16 160 6.4 9.7 0.00 0.56 0.00 70 1006.2
20260506084742 16 214 6.4 11.3 0.00 0.56 0.00 70 1006.3
20260506084241 16 299 4.8 11.3 0.00 0.56 0.00 73 1006.4
20260506083742 16 172 6.4 12.9 0.00 0.56 0.00 73 1006.3
20260506083242 16 154 6.4 11.3 0.00 0.56 0.00 73 1006.3
20260506082741 16 180 4.8 8.0 0.00 0.56 0.00 73 1006.3
20260506082241 16 159 4.8 9.7 0.00 0.56 0.00 73 1006.3
20260506081742 16 240 4.8 14.5 0.00 0.56 0.00 73 1006.3
20260506081242 16 166 6.4 14.5 0.00 0.56 0.00 72 1006.3
20260506080741 16 183 8.0 14.5 0.00 0.56 0.00 73 1006.3
20260506080242 16 223 1.6 11.3 0.00 0.56 0.00 74 1006.2
20260506073242 15 180 8.0 17.7 0.00 0.56 0.00 75 1006.3
20260506072741 15 217 9.7 16.1 0.00 0.56 0.00 76 1006.3
20260506072242 15 181 8.0 14.5 0.00 0.56 0.00 76 1006.3
20260506071742 15 217 6.4 12.9 0.00 0.56 0.00 76 1006.2
20260506071241 15 171 3.2 11.3 0.00 0.56 0.00 78 1006.2
20260506070741 15 210 4.8 11.3 0.00 0.56 0.00 77 1006.1
20260506070243 15 210 6.4 11.3 0.00 0.56 0.00 78 1006.1
20260506062242 13 163 4.8 8.0 0.00 0.61 0.00 82 1006.4
20260506061743 13 198 4.8 8.0 0.00 0.61 0.00 82 1006.3
20260506061243 13 135 1.6 6.4 0.00 0.61 0.00 84 1006.3
20260506060742 13 229 0.0 6.4 0.00 0.61 0.00 85 1006.3
20260506060243 13 157 1.6 4.8 0.00 0.61 0.00 86 1006.3
20260506051241 10 62 0.0 0.0 0.00 0.61 0.00 89 1006.4
20260506050742 9 62 0.0 1.6 0.00 0.61 0.00 89 1006.5
20260506050242 9 63 1.6 1.6 0.00 0.61 0.00 89 1006.6
20260506044742 9 5 0.0 1.6 0.00 0.61 0.00 88 1006.5
20260506044243 9 45 0.0 1.6 0.00 0.61 0.00 88 1006.5
20260506043742 9 47 1.6 3.2 0.00 0.61 0.00 87 1006.5
20260506043242 9 316 1.6 3.2 0.00 0.61 0.00 87 1006.6
20260506042743 9 46 0.0 1.6 0.00 0.61 0.00 87 1006.7
20260506042242 9 111 0.0 0.0 0.00 0.61 0.00 86 1006.7
20260506041742 9 109 0.0 0.0 0.00 0.61 0.00 86 1006.7